sat.trackr.live / text

‹ back to catalog

STARLINK-34453

NORAD 64441 · 2025-130D

PAYLOAD ACTIVE UNKNOWN

§ Identity

Operator
Country
US
Launch date
2025-06-18
Launch site
AFETR
Launch vehicle
Mass (kg)
RCS (m²)

Purposes: comms

External: N2YO · Heavens-Above · Gunter

§ Orbital elements

Epoch: 2026-05-25T03:21:02.221056Z

Period
93.85 min
Inclination
53.1583°
Eccentricity
0.0001114
Mean motion
15.34410605 rev/d
Perigee alt
461.9 km
Apogee alt
463.4 km
Semi-major
6,840.8 km
B*
5.3505e-4
RAAN
93.0316°
Arg perigee
97.5387°
Mean anomaly
262.5743°
Rev number
5,241

§ Raw data

STARLINK-344531 64441U 25130D   26145.13960904  .00017750  00000+0  53505-3 0  99902 64441  53.1583  93.0316 0001114  97.5387 262.5743 15.34410605 52414

JSON: /api/v1/satellites/64441 · /tle

For live sub-satellite position, see the globe view (requires WebGL).

§ Visibility from observer

Set your observer location to see the next 7 days of passes ≥ 10°. The values pass through the URL so the page stays shareable.

No JS? Fill the form by hand. The geolocation button needs JavaScript.